HBTSS-SV2

导读 | 豆包AI

HBTSS-SV2是美国HBTSS项目的第二颗原型卫星,于2024年2月14日发射升空,是美军构建天基高超音速防御杀伤链的核心传感器节点,具备对高动态目标滑翔段持续跟踪与精确测量的能力。入轨后该卫星已参与多次实战化试验,表现出色,2025年初美国宣布HBTSS项目具备初始作战能力,该卫星也进入在轨能力评估阶段,是美军天基预警拦截体系的关键组成。

Basic Information
目录编号:
58955
目录名称:
HBTSS-SV2
国际标识:
2024-028A
轨道中心:
EARTH
卫星名称:
HBTSS-SV2
卫星全名:
--
卫星状态:
在轨 (已飞行807 天)
发射日期:
2024-02-14 UTC
国别 :
美国 (US)
星等 :
--
Orbit Information
数据来源 国际轨道数据 AOE轨道数据
星历时间 2026-05-01T02:43:06+0800
11小时前
查看轨道信息
2026-05-01T02:00:00+0800
12小时前
查看轨道信息
半长轴 7376.054km 7376.056km
偏心率 0.0020228 0.0020462
轨道倾角 39.991° 39.993°
近地点辐角 325.573° 325.712°
升交点赤经 261.702° 261.842°
平近点角 34.371° 246.379°
近地点 982.996km 982.826km
远地点 1012.838km 1013.012km
周期 105.074分钟 105.074分钟
每日圈数 13.704609 13.704604
Detailed Information
使用方式:
暂无
2D Orbit Map
3D Orbit Map
Orbit Altitude Analysis Chart
Orbit Inclination Analysis Chart
Orbit Comprehensive Analysis Chart
View Comprehensive Chart